星链-31809 (STARLINK-31809 )

导读 | 星芒AI

STARLINK-31809 是 SpaceX Starlink 卫星互联网项目中的第 31809 颗卫星。该卫星属于低轨通信卫星群,旨在为全球用户提供高速互联网服务。它运行在约 550 公里的近地轨道上,采用先进推进系统和激光通信技术,以提高网络效率和稳定性。作为 Starlink 计划的一部分,该卫星有助于扩大覆盖范围,特别是在偏远和网络基础设施薄弱的地区。

基本信息
目录编号:
59743
目录名称:
STARLINK-31809
国际标识:
2024-090P
轨道中心:
EARTH
卫星名称:
星链-31809
卫星全名:
星链-31809 (STARLINK-31809 )
卫星状态:
在轨 (已飞行586 天)
发射日期:
2024-05-13 UTC
国别 :
美国 (US)
星等 :
--
轨道信息
数据来源 国际轨道数据
星历时间: 2025-12-19T11:37:11+0800
22小时前
查看轨道信息
半长轴: 6861.147km
偏心率: 0.000091
轨道倾角: 43.000°
近地点辐角 277.387°
升交点赤经 271.341°
平近点角 82.688°
近地点: 482.385km
远地点: 483.635km
周期: 94.266分钟
每日圈数: 15.275931
详细信息
固有亮度:
5
最大亮度:
1.5
卫星平台:
Starlink v2.0 mini
覆盖范围:
全球
运营商:
太空探索技术公司
运营商所在国:
美国
制造商(研发单位):
太空探索技术公司
制造商所在国:
美国
使用方式:
暂无
卫星简介
星链(Starlink)计划是由太空探索技术公司(SpaceX)提出的一个巨型低轨卫星互联网星座项目,计划在2019年至2024年间在太空搭建由约1.2万颗卫星组成的“星链”网络,其中1584颗将部署在地球上空550千米处的近地轨道,并从2020年开始工作。该卫星仍在工作。
2D轨道图
3D轨道图
轨道高度分析图
轨道倾角分析图
轨道综合分析图
查看轨道综合分析图